Overview Statistics Trail Chart Weather Telemetry Raw packets
 

This is the latest recevied weather packets stored in our database for station/object DL2GPS-3. If no packets are shown the sender has not sent any weather packets the latest 10 day(s).

<< 43 44 45 46 47 48 49 >>
Time Temp. Humidity Pressure Rain* Wind** Luminosity Snow
1788035061 16.11° C 84% 1019.4 hPa - - - -
1788034460 15.56° C 86% 1019.5 hPa - - - -
1788033859 15.56° C 86% 1019.5 hPa - - - -
1788033258 15.56° C 88% 1019.5 hPa - - - -
1788032656 15.56° C 89% 1019.4 hPa - - - -
1788032055 15° C 92% 1019.5 hPa - - - -
1788031456 15.56° C 94% 1019.5 hPa - - - -
1788030854 15.56° C 91% 1019.5 hPa - - - -
1788030253 16.11° C 84% 1019.5 hPa - - - -
1788029653 16.11° C 81% 1019.5 hPa - - - -
1788029052 16.11° C 80% 1019.5 hPa - - - -
1788028452 15.56° C 79% 1019.4 hPa - - - -
1788027851 16.11° C 78% 1019.4 hPa - - - -
1788027251 16.11° C 75% 1019.3 hPa - - - -
1788026650 16.11° C 73% 1019.3 hPa - - - -
1788026048 16.67° C 72% 1019.1 hPa - - - -
1788025447 16.67° C 70% 1019.1 hPa - - - -
1788024846 17.22° C 67% 1019.2 hPa - - - -
1788024245 17.78° C 65% 1019.1 hPa - - - -
1788023651 18.33° C 63% 1019.1 hPa - - - -
1788023043 18.89° C 64% 1019.1 hPa - - - -
1788022442 18.89° C 67% 1019.2 hPa - - - -
1788021842 18.89° C 67% 1019.2 hPa - - - -
1788021241 18.89° C 65% 1019.2 hPa - - - -
1788020640 20° C 63% 1019.2 hPa - - - -

* Rain since midnight (hover to see other rain measurements)
** Current wind speed in m/s (hover to see current wind gust speed)